Showing default

YAM-7, 60504

Orbit data source: Space-Track

YAM-7, 60504 is an American payload satellite in SSO that was launched on Fri, 16 Aug 2024 UTC via an FALCON 9 launch vehicle from the Air Force Western Test Range (AFWTR). Payload-class satellites include a variety of spacecraft equipped with specific instruments for various scientific and technological missions. These include communications satellites like Starlink; space stations such as the ISS; scientific satellites like the Hubble; Earth observation satellites from companies like Planet Labs, Umbra, and HawkEye 360; GPS; miniature CubeSats for education and research; and military/defense satellites.

Loading next visibility...
Identifier
60504, 2024-149AN
Orbit
SSO
Country
Flag of USUS
Related business
Manufacturer
LeoStella
Mission
Operational Commercial Technology
Bus & Motor
YAM, Unknown motor
Mass
91 kg wet, 91 kg dry
Launch date (UTC)
2024-08-16 (2 years ago)
Launch vehicle
FALCON 9
Launch site
Air Force Western Test Range (AFWTR)
Object type
Payload
Rocket body
Debris
Shape & HBR
Box, 1.0 m
Radar Cross Section
0.875 m², Medium (>0.1 m² and < 1m²)

Expand to show TLE details & history
Last TLE update: 23 hours ago

TLE from 23 hours ago
0 YAM-7
1 60504U 24149AN  26174.19762999  .00005706  00000-0  18788-3 0  9990
2 60504  97.3783 254.4229 0001804 267.0249  93.0786 15.31887257102974
Epoch: 2026-06-23T04:44Z
TLE epoch observation values (Epoch: 2026-06-23T04:44:35.231Z)
Latitude
-0.00002°
Longitude
-88.09654°
Altitude
473.356 km
Speed
7.629 km/s
True Right ascension
16h 57m 41s
True Declination
0° 00' 00"
Sunlit
Object was in full shadow at epoch
Visualization orbit readout
Latitude
Unknown
Longitude
Unknown
Altitude
Unknown
Speed
Unknown
Apparent Right ascension
Unknown
Apparent Declination
Unknown
Sunlit
N/A
Visualization observer readout
Local Sidereal Time
15:20:20
Azimuth
Unknown
Elevation
Unknown
Doppler factor
Unknown
Orbital elements
Apogee altitude
468.366 km
Perigee altitude
465.896 km
Semi-major axis
6,845.268 km
Eccentricity
0.00018
Inclination
97.3783°
RAAN
254.4229°
Arg. of periapsis
267.0249°
True anomaly
93.09924°
Mean anomaly
93.0786°
Eccentric anomaly
93.08892°
Mean motion
3.83228 °/min
Orbital period
93.94 mins
BSTAR
0.00018788
Loading maneuver chart data...
Computing Atmospheric mass density...
Loading historical data...
Loading historical data...
Loading historical data...
Loading historical data...
Loading historical data...
Loading historical data...
Loading historical data...

Documentation

Showing up to 5 results
|